Regional Weather Roundup
Issued by NWS Upton, NY

Current Version | Previous Version | Graphics & Text | Print | Product List | Glossary Off
Versions: 1 2 3 4 5 6 7 8 9 10 11 12 13 14 15 16 17 18 19 20 21 22 23 24 25 26 27 28 29 30 31 32 33 34 35 36 37 38 39 40 41 42 43 44 45 46 47 48 49 50

000
ASUS41 KOKX 291405
RWROKX

REGIONAL WEATHER ROUNDUP
NATIONAL WEATHER SERVICE NEW YORK NY
1000 AM EDT TUE JUL 29 2014

NOTE: "FAIR" INDICATES FEW OR NO CLOUDS BELOW 12,000 FEET WITH NO
SIGNIFICANT WEATHER AND/OR OBSTRUCTIONS TO VISIBILITY.

NYZ071-072-176-178-NJZ106-104-291500-
NEW YORK CITY METRO AREA


CITY           SKY/WX    TMP DP  RH WIND       PRES   REMARKS
CENTRAL PARK   SUNNY     68  51  54 VRB3      29.89R
LAGUARDIA APRT MOSUNNY   69  53  56 NW10      29.85S
KENNEDY INTL   MOSUNNY   72  53  51 NW12      29.86S
NEWARK/LIBERTY MOSUNNY   70  53  54 NW13      29.86S
BRNX BOT. GARD   N/A     68  54  60 W2        29.88S
TETERBORO      SUNNY     72  52  49 N10       29.85S
$$

NYZ177-179-078>081-291500-
LONG ISLAND NEW YORK

CITY           SKY/WX    TMP DP  RH WIND       PRES   REMARKS
FARMINGDALE    SUNNY     70  54  56 NW8       29.85R
ISLIP          MOSUNNY   73  55  53 NW10      29.83R
SHIRLEY        SUNNY     72  55  55 NW9       29.84R
WESTHAMPTON    SUNNY     72  55  55 NW10      29.85R
MONTAUK POINT    N/A     69  58  67 W8        29.83R
$$

NYZ052-065-067-291500-
HUDSON VALLEY

CITY           SKY/WX    TMP DP  RH WIND       PRES   REMARKS
WHITE PLAINS   MOSUNNY   68  55  63 NW13      29.86R
NEWBURGH       MOSUNNY   66  55  68 W12       29.88R
MONTGOMERY     SUNNY     67  52  58 NW8       29.87R
POUGHKEEPSIE   SUNNY     68  54  60 W5        29.85R
ALBANY         MOSUNNY   66  54  65 W8        29.85R
$$

NJZ001-105-106-008-010-013-015-019>022-104-291500-
NEW JERSEY

CITY           SKY/WX    TMP DP  RH WIND       PRES   REMARKS
NEWARK/LIBERTY MOSUNNY   70  53  54 NW13      29.86S
TETERBORO      SUNNY     72  52  49 N10       29.85S
CALDWELL       SUNNY     68  52  56 NW8       29.88R
MORRISTOWN     MOSUNNY   68  55  64 NW9       29.88S
SOMERVILLE     SUNNY     69  53  56 NW7       29.87S
LINDEN         FAIR      71  55  56 NW12G18   29.88F
SUSSEX         MOSUNNY   69  54  58 N5        29.89R
ANDOVER          N/A     66  53  63 VRB6      29.90R
TRENTON        SUNNY     68  55  63 NW9       29.89R
MILLVILLE      SUNNY     71  57  61 N9        29.90S
ATLANTIC CITY  SUNNY     71  56  58 NW10      29.88S
WRIGHTSTOWN    SUNNY     69  56  63 NW8       29.87S
TOMS RIVER     SUNNY     70  55  60 N9        29.88R
BELMAR         SUNNY     70  54  56 NW12      29.87S
$$

PAZ047>061-062-071-291500-
EASTERN PENNSYLVANIA

CITY           SKY/WX    TMP DP  RH WIND       PRES   REMARKS
PHILADELPHIA   MOSUNNY   70  54  56 NW9       29.90S
ALLENTOWN      PTSUNNY   66  53  63 W6        29.91R
SCRANTON       PTSUNNY   65  52  62 VRB3      29.92R
$$

CTZ002-004>006-009-010-012-RIZ004-006-007-MAZ004-011-015-291500-
SOUTHERN NEW ENGLAND
 IN CT

CITY           SKY/WX    TMP DP  RH WIND       PRES   REMARKS
BRADLEY INTL   MOSUNNY   70  54  56 W10       29.81R
HARTFORD       SUNNY     69  54  58 VRB5      29.82R
DANBURY        SUNNY     67  52  58 NW8       29.86R
WTRBRY/OXFORD  MOSUNNY   66  54  63 N10       29.86S
BRIDGEPORT     MOSUNNY   71  56  58 W12       29.84R
MERIDEN        SUNNY     70  53  54 VRB6      29.83S
NEW HAVEN      SUNNY     72  56  57 NW6       29.83R
CHESTER        FAIR      66  54  63 NW8       29.84R
GROTON         SUNNY     71  57  61 NW5       29.81R
WILLIMANTIC    SUNNY     69  56  62 W8        29.82R

 IN RI

CITY           SKY/WX    TMP DP  RH WIND       PRES   REMARKS
PROVIDENCE     MOSUNNY   72  58  61 W7        29.80R
BLOCK ISLAND   SUNNY     70  57  64 W9        29.82R
WESTERLY       SUNNY     72  57  59 VRB6      29.81R

 IN MA

CITY           SKY/WX    TMP DP  RH WIND       PRES   REMARKS
BOSTON         MOSUNNY   71  54  54 W13       29.78R
WORCESTER      SUNNY     65  54  67 W14       29.81R
WESTFIELD      SUNNY     69  53  56 W9        29.82R
PROVINCETOWN   SUNNY     70  57  64 CALM      29.79R
NANTUCKET      MOSUNNY   71  61  70 W10       29.79R
$$

ANZ330-335-338-340-345-350-353-355-291500-
COASTAL MARINE OBSERVATIONS


STATION/POSITION TIME  SKY/WX   TEMP    WIND        PRES    VSBY  WAVE
                                AIR SEA DIR/SP/G                  HT/PER
                 (UTC)          (F)     (DEG/KT/KT) (MB)    (MI)  (FT/S)
NY HARB ENTRANCE NOT AVBL
4S FIRE IS       NOT AVBL
23SW MTP         1400            68 69              1009.3          5/ 8
HUDSON CANYON    1400            69 74  330/  8/ 10 1010.5          4/ 7
EXECUTION ROCKS  1400            70 70  320/  8/ 12   N/A
WESTERN LI SOUND 1400            67     300/  8/ 12   N/A           0
CENTRAL LI SOUND 1300            67 71  300/ 12/ 14   N/A           1/ 4
EASTERN LI SOUND 1300            69 68  270/  8/ 10   N/A
ROBBINS REEF     1400            67     340/ 11/ 16   N/A
$$


>>>>>>>>>>>>>>>>>>>>>>>>>>>> KEY <<<<<<<<<<<<<<<<<<<<<<<<<<<
>                                                          <
>     SKY/WX - SKY CONDITION/PRESENT WEATHER               <
>     TMP    - TEMPERATURE IN FAHRENHEIT                   <
>     DP     - DEWPOINT IN FAHRENHEIT                      <
>     RH     - RELATIVE HUMIDITY IN PERCENT                <
>     WIND   - DIRECTION AND SPEED IN MPH                  <
>     PRES   - MEAN SEA LEVEL PRESSURE IN INCHES OF HG     <
>     WCI    - WIND CHILL INDEX                            <
>     VSB    - VISIBILITY IN MILES                         <
>     HX     - HEAT INDEX                                  <
>     TC     - TEMPERATURE IN CELSIUS                      <
>     VRB    - VARIABLE WIND DIRECTION                     <
>                                                          <
>>>>>>>>>>>>>>>>>>>>>>>>>>>> KEY <<<<<<<<<<<<<<<<<<<<<<<<<<<





USA.gov is the U.S. government's official web portal to all federal, state and local government web resources and services.